TimeCDT,TemperatureF,Dew PointF,Humidity,Sea Level PressureIn,VisibilityMPH,Wind Direction,Wind SpeedMPH,Gust SpeedMPH,PrecipitationIn,Events,Conditions,WindDirDegrees,DateUTC
12:15 AM,70.2,68.0,93,29.86,10.0,Calm,Calm,-,N/A,,Scattered Clouds,0,2013-07-20 05:15:00
12:35 AM,71.2,68.2,90,29.86,10.0,Calm,Calm,-,N/A,,Scattered Clouds,0,2013-07-20 05:35:00
12:55 AM,68.9,66.7,93,29.86,10.0,Calm,Calm,-,N/A,,Scattered Clouds,0,2013-07-20 05:55:00
1:15 AM,69.3,67.1,93,29.86,10.0,Calm,Calm,-,N/A,,Scattered Clouds,0,2013-07-20 06:15:00
1:35 AM,70.0,67.3,91,29.86,10.0,Calm,Calm,-,N/A,,Clear,0,2013-07-20 06:35:00
1:55 AM,69.8,67.3,92,29.86,10.0,Calm,Calm,-,N/A,,Scattered Clouds,0,2013-07-20 06:55:00
2:15 AM,70.5,66.6,87,29.86,10.0,Calm,Calm,-,N/A,,Scattered Clouds,0,2013-07-20 07:15:00
2:35 AM,69.8,65.7,87,29.86,10.0,Calm,Calm,-,N/A,,Clear,0,2013-07-20 07:35:00
2:55 AM,69.1,64.9,87,29.86,10.0,Calm,Calm,-,N/A,,Clear,0,2013-07-20 07:55:00
3:15 AM,68.4,64.6,88,29.86,10.0,Calm,Calm,-,N/A,,Clear,0,2013-07-20 08:15:00
3:35 AM,68.0,64.4,88,29.86,10.0,Calm,Calm,-,N/A,,Clear,0,2013-07-20 08:35:00
3:55 AM,67.3,63.5,88,29.86,10.0,Calm,Calm,-,N/A,,Clear,0,2013-07-20 08:55:00
4:15 AM,67.1,63.1,87,29.86,10.0,Calm,Calm,-,N/A,,Clear,0,2013-07-20 09:15:00
4:35 AM,66.2,62.6,88,29.87,10.0,Calm,Calm,-,N/A,,Clear,0,2013-07-20 09:35:00
4:55 AM,64.8,62.1,91,29.87,10.0,Calm,Calm,-,N/A,,Clear,0,2013-07-20 09:55:00
5:15 AM,64.0,61.3,91,29.87,10.0,Calm,Calm,-,N/A,,Clear,0,2013-07-20 10:15:00
5:35 AM,64.0,61.0,90,29.87,10.0,Calm,Calm,-,N/A,,Clear,0,2013-07-20 10:35:00
5:55 AM,65.3,61.7,88,29.88,10.0,Calm,Calm,-,N/A,,Clear,0,2013-07-20 10:55:00
6:15 AM,65.7,61.7,87,29.89,10.0,Calm,Calm,-,N/A,,Clear,0,2013-07-20 11:15:00
6:35 AM,66.2,62.1,86,29.89,10.0,Calm,Calm,-,N/A,,Clear,0,2013-07-20 11:35:00
6:55 AM,67.6,62.4,83,29.89,10.0,Calm,Calm,-,N/A,,Clear,0,2013-07-20 11:55:00
7:15 AM,68.9,62.6,80,29.89,10.0,Calm,Calm,-,N/A,,Clear,0,2013-07-20 12:15:00
7:35 AM,70.0,62.8,78,29.90,10.0,North,3.5,-,N/A,,Clear,350,2013-07-20 12:35:00
7:55 AM,71.4,63.5,76,29.91,10.0,Calm,Calm,-,N/A,,Clear,0,2013-07-20 12:55:00
8:15 AM,72.9,63.3,72,29.91,10.0,Calm,Calm,-,N/A,,Clear,0,2013-07-20 13:15:00
8:35 AM,74.8,61.3,63,29.91,10.0,NNE,5.8,-,N/A,,Clear,20,2013-07-20 13:35:00
8:55 AM,75.9,61.3,60,29.91,10.0,NNE,5.8,-,N/A,,Clear,20,2013-07-20 13:55:00
9:15 AM,76.8,61.9,60,29.92,10.0,Calm,Calm,-,N/A,,Clear,0,2013-07-20 14:15:00
9:35 AM,77.7,62.1,58,29.92,10.0,Calm,Calm,-,N/A,,Clear,0,2013-07-20 14:35:00
9:55 AM,79.0,61.5,55,29.93,10.0,Calm,Calm,-,N/A,,Clear,0,2013-07-20 14:55:00
10:15 AM,79.5,60.1,51,29.93,10.0,Calm,Calm,-,N/A,,Clear,0,2013-07-20 15:15:00
10:35 AM,80.6,58.5,47,29.94,10.0,NNE,6.9,-,N/A,,Clear,30,2013-07-20 15:35:00
10:55 AM,81.1,59.2,47,29.94,10.0,NE,8.1,-,N/A,,Clear,40,2013-07-20 15:55:00
11:15 AM,81.5,57.6,44,29.94,10.0,NE,5.8,-,N/A,,Clear,40,2013-07-20 16:15:00
11:35 AM,82.4,57.2,42,29.94,10.0,North,4.6,-,N/A,,Clear,350,2013-07-20 16:35:00
11:55 AM,82.2,58.5,44,29.94,10.0,NNE,3.5,-,N/A,,Clear,20,2013-07-20 16:55:00
12:15 PM,82.6,58.6,44,29.94,10.0,NNW,4.6,-,N/A,,Clear,330,2013-07-20 17:15:00
12:35 PM,82.8,57.7,42,29.94,10.0,WNW,5.8,-,N/A,,Clear,300,2013-07-20 17:35:00
12:55 PM,83.1,59.5,45,29.94,10.0,NW,3.5,-,N/A,,Clear,320,2013-07-20 17:55:00
1:15 PM,83.1,59.4,44,29.94,10.0,NW,3.5,-,N/A,,Clear,320,2013-07-20 18:15:00
1:35 PM,84.4,57.9,40,29.93,10.0,NW,6.9,-,N/A,,Clear,320,2013-07-20 18:35:00
1:55 PM,84.9,56.8,38,29.92,10.0,Calm,Calm,-,N/A,,Clear,0,2013-07-20 18:55:00
2:15 PM,84.7,57.2,39,29.92,10.0,NNW,9.2,-,N/A,,Clear,330,2013-07-20 19:15:00
2:35 PM,85.1,59.2,41,29.92,10.0,NNW,6.9,-,N/A,,Clear,330,2013-07-20 19:35:00
2:55 PM,84.9,59.7,42,29.91,10.0,NNW,6.9,-,N/A,,Clear,340,2013-07-20 19:55:00
3:15 PM,84.7,60.1,43,29.90,10.0,North,5.8,-,N/A,,Clear,360,2013-07-20 20:15:00
3:35 PM,85.6,59.0,40,29.90,10.0,WNW,4.6,-,N/A,,Clear,300,2013-07-20 20:35:00
3:55 PM,85.3,60.1,42,29.90,10.0,North,6.9,-,N/A,,Scattered Clouds,10,2013-07-20 20:55:00
4:15 PM,85.5,59.9,42,29.89,10.0,North,4.6,-,N/A,,Scattered Clouds,360,2013-07-20 21:15:00
4:35 PM,85.5,61.0,44,29.89,10.0,NNW,4.6,-,N/A,,Clear,330,2013-07-20 21:35:00
4:55 PM,85.6,60.6,43,29.89,10.0,Calm,Calm,-,N/A,,Scattered Clouds,0,2013-07-20 21:55:00
5:15 PM,85.3,61.5,45,29.88,10.0,NW,3.5,-,N/A,,Scattered Clouds,320,2013-07-20 22:15:00
5:35 PM,85.3,60.6,43,29.87,10.0,WNW,6.9,-,N/A,,Scattered Clouds,290,2013-07-20 22:35:00
5:55 PM,84.7,61.2,45,29.88,10.0,NW,3.5,-,N/A,,Clear,320,2013-07-20 22:55:00
6:15 PM,84.7,61.7,46,29.89,10.0,WNW,5.8,-,N/A,,Scattered Clouds,290,2013-07-20 23:15:00
6:35 PM,83.8,61.2,46,29.89,10.0,Calm,Calm,-,N/A,,Mostly Cloudy,0,2013-07-20 23:35:00
6:55 PM,81.7,63.9,55,29.90,10.0,West,4.6,-,N/A,,Overcast,270,2013-07-20 23:55:00
7:15 PM,82.8,64.2,53,29.90,10.0,WNW,4.6,-,N/A,,Mostly Cloudy,290,2013-07-21 00:15:00
7:35 PM,75.2,62.6,65,29.92,10.0,ENE,11.5,-,N/A,,Overcast,60,2013-07-21 00:35:00
7:55 PM,74.5,60.6,62,29.92,10.0,East,5.8,-,N/A,,Mostly Cloudy,90,2013-07-21 00:55:00
8:15 PM,73.0,61.5,67,29.92,10.0,SE,6.9,-,N/A,,Mostly Cloudy,130,2013-07-21 01:15:00
8:35 PM,72.9,62.1,69,29.93,10.0,SE,5.8,-,N/A,,Overcast,140,2013-07-21 01:35:00
8:55 PM,72.7,62.8,71,29.93,10.0,SSE,3.5,-,N/A,,Mostly Cloudy,150,2013-07-21 01:55:00
9:15 PM,72.5,63.3,73,29.94,10.0,SSE,3.5,-,N/A,,Mostly Cloudy,160,2013-07-21 02:15:00
9:35 PM,71.8,63.0,74,29.95,10.0,Calm,Calm,-,N/A,,Mostly Cloudy,0,2013-07-21 02:35:00
9:55 PM,71.4,63.5,76,29.95,10.0,East,5.8,-,N/A,,Scattered Clouds,80,2013-07-21 02:55:00
10:15 PM,70.7,62.8,76,29.95,10.0,ENE,5.8,-,N/A,,Clear,70,2013-07-21 03:15:00
10:35 PM,69.6,64.0,82,29.96,10.0,East,4.6,-,N/A,,Clear,90,2013-07-21 03:35:00
10:55 PM,67.6,64.2,89,29.95,10.0,ESE,4.6,-,N/A,,Clear,120,2013-07-21 03:55:00
11:15 PM,68.2,64.0,87,29.95,10.0,ENE,4.6,-,N/A,,Clear,60,2013-07-21 04:15:00
11:35 PM,68.0,63.5,85,29.95,10.0,Calm,Calm,-,N/A,,Clear,0,2013-07-21 04:35:00
11:55 PM,67.1,63.5,88,29.95,10.0,East,4.6,-,N/A,,Clear,80,2013-07-21 04:55:00